This is the latest recevied weather packets stored in our database for station/object DK6OC-10. If no packets are shown the sender has not sent any weather packets the latest 1 day(s).
| Time | Temp. | Humidity | Pressure | Rain* | Wind** | Luminosity | Snow |
|---|---|---|---|---|---|---|---|
| 1788356296 | 24.44° C | 46% | 1016.7 hPa | - | - | - | - |
| 1788354496 | 23.89° C | 45% | 1016.7 hPa | - | - | - | - |
| 1788352696 | 23.89° C | 45% | 1016.9 hPa | - | - | - | - |
| 1788350895 | 23.89° C | 49% | 1017 hPa | - | - | - | - |
| 1788349095 | 23.33° C | 49% | 1017 hPa | - | - | - | - |
| 1788347295 | 22.78° C | 49% | 1017.2 hPa | - | - | - | - |
| 1788345495 | 22.22° C | 50% | 1017.3 hPa | - | - | - | - |
| 1788343694 | 22.22° C | 50% | 1017.4 hPa | - | - | - | - |
| 1788341894 | 21.67° C | 52% | 1017.3 hPa | - | - | - | - |
| 1788340094 | 20.56° C | 54% | 1017.4 hPa | - | - | - | - |
| 1788338294 | 20° C | 56% | 1017.2 hPa | - | - | - | - |
| 1788336494 | 20° C | 57% | 1017.2 hPa | - | - | - | - |
| 1788334694 | 20° C | 56% | 1017 hPa | - | - | - | - |
| 1788332894 | 19.44° C | 57% | 1016.9 hPa | - | - | - | - |
| 1788331093 | 19.44° C | 56% | 1016.7 hPa | - | - | - | - |
| 1788329293 | 18.89° C | 56% | 1016.8 hPa | - | - | - | - |
| 1788327493 | 18.89° C | 55% | 1016.6 hPa | - | - | - | - |
| 1788325693 | 18.89° C | 56% | 1016.6 hPa | - | - | - | - |
| 1788323893 | 18.89° C | 56% | 1016.2 hPa | - | - | - | - |
| 1788322093 | 18.89° C | 55% | 1016.3 hPa | - | - | - | - |
| 1788320293 | 19.44° C | 55% | 1016.3 hPa | - | - | - | - |
| 1788318493 | 19.44° C | 55% | 1016.2 hPa | - | - | - | - |
| 1788316693 | 19.44° C | 55% | 1016.4 hPa | - | - | - | - |
| 1788314893 | 19.44° C | 55% | 1016.8 hPa | - | - | - | - |
| 1788313093 | 19.44° C | 55% | 1016.4 hPa | - | - | - | - |
* Rain since midnight (hover to see other rain measurements)
** Current wind speed in m/s (hover to see current wind gust speed)